This is the latest recevied weather packets stored in our database for station/object KB9PMA-1. If no packets are shown the sender has not sent any weather packets the latest 10 day(s).
| Time | Temp. | Humidity | Pressure | Rain* | Wind** | Luminosity | Snow |
|---|---|---|---|---|---|---|---|
| 1778086974 | 13.33° C | 56% | 1015 hPa | 0 mm | - | - | - |
| 1778086674 | 12.78° C | 57% | 1015 hPa | 0 mm | - | - | - |
| 1778086374 | 12.78° C | 55% | 1015 hPa | 0 mm | - | - | - |
| 1778086074 | 12.78° C | 54% | 1015 hPa | 0 mm | - | - | - |
| 1778085774 | 12.78° C | 58% | 1015.1 hPa | 0 mm | - | - | - |
| 1778085474 | 12.22° C | 58% | 1015 hPa | 0 mm | - | - | - |
| 1778085174 | 12.22° C | 60% | 1015 hPa | 0 mm | - | - | - |
| 1778084874 | 12.22° C | 60% | 1015 hPa | 0 mm | - | - | - |
| 1778084574 | 12.22° C | 57% | 1015 hPa | 0 mm | - | - | - |
| 1778084274 | 12.22° C | 59% | 1015.2 hPa | 0 mm | - | - | - |
| 1778083974 | 12.22° C | 57% | 1015.1 hPa | 0 mm | - | - | - |
| 1778083674 | 12.22° C | 58% | 1015.1 hPa | 0 mm | - | - | - |
| 1778083374 | 12.22° C | 58% | 1015.3 hPa | 0 mm | - | - | - |
| 1778083074 | 12.22° C | 58% | 1015.3 hPa | 0 mm | - | - | - |
| 1778082774 | 12.22° C | 60% | 1015.1 hPa | 0 mm | - | - | - |
| 1778082474 | 12.78° C | 60% | 1015.1 hPa | 0 mm | - | - | - |
| 1778082174 | 12.78° C | 53% | 1015.1 hPa | 0 mm | - | - | - |
| 1778081874 | 12.78° C | 60% | 1015 hPa | 0 mm | - | - | - |
| 1778081574 | 12.78° C | 60% | 1014.9 hPa | 0 mm | - | - | - |
| 1778081274 | 12.22° C | 61% | 1015.1 hPa | 0 mm | - | - | - |
| 1778080974 | 12.22° C | 61% | 1015.2 hPa | 0 mm | - | - | - |
| 1778080674 | 11.67° C | 59% | 1015.1 hPa | 0 mm | - | - | - |
| 1778080374 | 11.67° C | 57% | 1015.2 hPa | 0 mm | - | - | - |
| 1778080074 | 12.22° C | 58% | 1015.2 hPa | 0 mm | - | - | - |
| 1778079774 | 12.22° C | 60% | 1015.1 hPa | 0 mm | - | - | - |
* Rain latest hour (hover to see other rain measurements)
** Current wind speed in m/s (hover to see current wind gust speed)